Regional Weather Roundup
Issued by NWS

Home | Current Version | Previous Version | Text Only | Print | Product List | Glossary On
Versions: 1 2 3 4 5 6 7 8 9 10 11 12 13 14 15 16 17 18 19 20 21 22 23 24 25 26 27 28 29 30 31 32 33 34 35 36 37 38 39 40 41 42 43 44 45 46 47 48 49 50
000
ASUS43 KDMX 192101
RWRIA

WEATHER ROUNDUP FOR IOWA
NATIONAL WEATHER SERVICE DES MOINES IA
300 PM CST SUN NOV 19 2017

NOTE: "FAIR" INDICATES FEW OR NO CLOUDS BELOW 12,000 FEET WITH NO
SIGNIFICANT WEATHER AND/OR OBSTRUCTIONS TO VISIBILITY.

* - THESE STATIONS ARE NOT NWS STATIONS...THUS NOT UNDER NWS
QUALITY CONTROL.  THEY ALSO DO NOT REPORT WEATHER SUCH
AS PRECIPITATION OR FOG.

IAZ001>003-012>014-020>022-031>034-043>046-192200-
   NORTHWEST IOWA

CITY           SKY/WX    TMP DP  RH WIND       PRES   REMARKS
CARROLL *      SUNNY     50  27  40 SW17      29.99F
DENISON *      SUNNY     50  27  40 SW16G23   30.00F
LE MARS *      SUNNY     54  25  32 SW10      29.95F
ORANGE CITY *  SUNNY     52  30  43 SW14      29.94F
SHELDON *      SUNNY     50  27  40 S14       29.93F
SIOUX CITY     SUNNY     54  24  31 SW14      29.96F
SPENCER        SUNNY     50  25  37 SW15      29.96F
STORM LAKE *   SUNNY     48  27  43 SW14      29.97F
$$

IAZ055>058-069>071-079>083-090>094-192200-
   SOUTHWEST IOWA

CITY           SKY/WX    TMP DP  RH WIND       PRES   REMARKS
ATLANTIC *     SUNNY     50  30  46 SW17      30.03F
AUDUBON *      SUNNY     48  28  46 S14G20    30.02F
CLARINDA *     SUNNY     52  28  40 SW13G20     N/A
COUNCIL BLFS * SUNNY     52  28  40 SW14      30.01F
CRESTON *      SUNNY     48  27  43 SW15      30.07F
HARLAN  *      SUNNY     50  28  43 SW17G24   30.04F
LAMONI         SUNNY     47  26  44 SW12      30.08F
RED OAK *      SUNNY     52  28  40 SW16      30.05F
SHENANDOAH *   SUNNY     54  28  37 SW14G21   30.06F
$$

IAZ047>049-059>061-072>074-084-192200-
   CENTRAL IOWA

CITY           SKY/WX    TMP DP  RH WIND       PRES   REMARKS
AMES           SUNNY     47  29  49 SW14      30.03F
ANKENY *       SUNNY     46  25  42 SW10G16   30.06F
BOONE *        SUNNY     46  27  46 SW14      30.01F
CHARITON *     SUNNY     46  23  39 SW9       30.08F
DES MOINES     MOSUNNY   48  24  39 SW15      30.04F
GRINNELL*      SUNNY     43  24  47 SW13      30.07F
KNOXVILLE *    SUNNY     46  23  39 SW12      30.06F
MARSHALLTOWN   SUNNY     43  26  51 SW14      30.04F
NEWTON *       SUNNY     45  25  45 SW12      30.06F
PELLA *        SUNNY     46  24  42 SW8       30.09F
PERRY *          N/A     48  23  38 SW12      30.02F
$$

IAZ004>006-015-016-023>025-035-036-192200-
   NORTH CENTRAL IOWA

CITY           SKY/WX    TMP DP  RH WIND       PRES   REMARKS
ALGONA *       SUNNY     48  28  46 SW15G22   29.97F
CLARION *      SUNNY     46  28  49 SW17      29.99F
ESTHERVILLE    SUNNY     48  26  42 W16       29.94F
FORT DODGE *   SUNNY     48  27  44 SW13      30.00F
MASON CITY     SUNNY     43  25  49 SW10      30.00F
FOREST CITY *    N/A     45  28  53 SW12      29.98F
WEBSTER CITY * SUNNY     46  27  46 SW16      29.99F
IOWA FALLS *     N/A     46  26  47 SW12G17   30.03F
$$

IAZ007>011-017>019-026>030-037>042-050>054-066-192200-
   NORTHEAST IOWA

CITY           SKY/WX    TMP DP  RH WIND       PRES   REMARKS
CEDAR RAPIDS   SUNNY     39  21  48 SW8       30.08F WCI  33
CHARLES CITY * SUNNY     41  23  48 SW14G20   30.01F
CLINTON *      SUNNY     34  19  54 W15       30.10F WCI  24
DECORAH *      SUNNY     36  19  51 VRB6G13   30.00F WCI  31
DUBUQUE        SUNNY     33  19  56 W14       30.06F WCI  23
MONTICELLO *   SUNNY     37  21  52 W9        30.07F WCI  31
OELWEIN *      SUNNY     37  23  56 SW13      30.04F WCI  29
WATERLOO       SUNNY     41  21  44 SW13      30.04F
$$

IAZ064-065-067-068-078-192200-
   EAST CENTRAL IOWA

CITY           SKY/WX    TMP DP  RH WIND       PRES   REMARKS
DAVENPORT      SUNNY     35  17  47 W12       30.13S WCI  27
IOWA CITY      SUNNY     40  21  46 SW8       30.12F WCI  34
MT. PLEASANT * SUNNY     40  20  45 SW6       30.13S
MUSCATINE *    SUNNY     39  19  45 SW8       30.13F WCI  34
QUAD CITIES    SUNNY     37  17  44 W13       30.11F WCI  29
$$

IAZ062-063-075>077-085>089-095>099-192200-
   SOUTHEAST IOWA

CITY           SKY/WX    TMP DP  RH WIND       PRES   REMARKS
BURLINGTON     SUNNY     39  22  50 SW7       30.13F WCI  34
FAIRFIELD *    SUNNY     43  21  42 SW7G13    30.11S
FORT MADISON * SUNNY     39  21  48 SW5       30.14S
KEOKUK *       SUNNY     41  21  45 W9        30.14S
OTTUMWA        SUNNY     44  23  43 W13       30.09F
WASHINGTON *   SUNNY     41  21  45 W13       30.12F
$$

ABBREVIATIONS USED IN REMARKS
   TC - TEMPERATURES IN CELSIUS
  WCI - WIND CHILL INDEX
   HX - HEAT INDEX
  VSB - VISIBILITY
$$





USA.gov is the U.S. government's official web portal to all federal, state and local government web resources and services.